sat.trackr.live / text

‹ back to catalog

STARLINK-6117

NORAD 56130 · 2023-046AQ

PAYLOAD ACTIVE UNKNOWN

§ Identity

Operator
Country
US
Launch date
2023-03-29
Launch site
AFETR
Launch vehicle
Mass (kg)
RCS (m²)

Purposes: comms

External: N2YO · Heavens-Above · Gunter

§ Orbital elements

Epoch: 2026-09-20T21:18:17.341344Z

Period
94.27 min
Inclination
43.0038°
Eccentricity
0.0002240
Mean motion
15.27585922 rev/d
Perigee alt
481.5 km
Apogee alt
484.6 km
Semi-major
6,861.2 km
B*
4.7600e-5
RAAN
124.5721°
Arg perigee
260.0170°
Mean anomaly
100.0429°
Rev number
19,205

§ Raw data

STARLINK-61171 56130U 23046AQ  26263.88770071  .00001048  00000+0  47600-4 0  99902 56130  43.0038 124.5721 0002240 260.0170 100.0429 15.27585922192050

JSON: /api/v1/satellites/56130 · /tle

For live sub-satellite position, see the globe view (requires WebGL).

§ Visibility from observer

Set your observer location to see the next 7 days of passes ≥ 10°. The values pass through the URL so the page stays shareable.

No JS? Fill the form by hand. The geolocation button needs JavaScript.